Location: Ecklingerode
(51.5036°N, 10.3122°E)
Time: 07:52:53
(UTC+00:00)

COSMO-SKYMED 1 - Pass Details

Date: 29 October 2020
Orbit: 621 x 623 km, 97.9° (Epoch: 01 December)

Event Time Altitude Azimuth Distance (km) Brightness Sun altitude
Rises 17:00:02 0° 19° (NNE) 2,918 5.7 -10.4°
Reaches altitude 10° 17:02:21 10° 27° (NNE) 2,006 4.8 -10.7°
Maximum altitude 17:06:28 40° 98° (E) 929 3.0 -11.4°
Drops below altitude 10° 17:10:33 10° 168° (SSE) 1,989 5.1 -12.0°
Sets 17:12:50 0° 176° (S) 2,890 6.0 -12.3°
